User: anonymous   Login
Location: Wien
(48.2082°N, 16.3738°E)
Time: 13:17:53
(UTC+02:00)
Language:

DELFI C3 - Orbit

View from above orbital plane
View from above orbital plane
View from above satellite
View from above satellite

Ground track
Ground track

The orbit data is extracted from the following two-line orbital elements,

1 32789U 08021G   19295.70442248  .00000762  00000-0  54567-4 0  9993
2 32789  97.4511 341.4916 0013423  59.0120 301.2425 15.07188026625947
Epoch (UTC): 22 October 2019 16:54:22
Eccentricity: 0.0013423
inclination: 97.4511°
perigee height: 535 km
apogee height: 554 km
right ascension of ascending node: 341.4916°
argument of perigee: 59.0120°
revolutions per day: 15.07188026
mean anomaly at epoch: 301.2425°
orbit number at epoch: 62594

The dashed part of the orbit path shows where the satellite is in the earth's shadow,  

DLR